Regional Weather Roundup
Issued by NWS

Home | Current Version | Previous Version | Graphics & Text | Print | Product List | Glossary On
Versions: 1 2 3 4 5 6 7 8 9 10 11 12 13 14 15 16 17 18 19 20 21 22 23 24 25 26 27
000
ASUS45 KBOU 160310
RWRCO

WEATHER ROUNDUP FOR COLORADO
NATIONAL WEATHER SERVICE DENVER/BOULDER CO
800 PM MST MON JAN 15 2018

NOTE: "FAIR" INDICATES FEW OR NO CLOUDS BELOW 12000 FEET WITH NO
SIGNIFICANT WEATHER AND/OR OBSTRUCTIONS TO VISIBILITY.

COZ001>005-013-030-031-160400-
...NORTHWEST COLORADO...

CITY           SKY/WX    TMP DP  RH WIND       PRES   REMARKS
CRAIG          FAIR      14   1  56 CALM      30.41R
HAYDEN         FAIR      16   3  56 S6        30.41R WCI   7
MEEKER         FAIR      25   8  48 SW6       30.39R WCI  18
RABBIT EARS PA FAIR     N/A N/A N/A CALM      30.28S
STEAMBOAT SPGS FAIR      16   5  62 CALM      30.38R
WALDEN         FAIR       3 -11  51 NE9       30.37S WCI -11
$$

COZ006>008-011-160400-
...WEST CENTRAL VALLEYS...

CITY           SKY/WX    TMP DP  RH WIND       PRES   REMARKS
GRAND JUNCTION FAIR      37  18  46 CALM      30.33R
MONTROSE       FAIR      29  20  69 S6        30.34R WCI  23
EAGLE          FAIR      27  11  51 CALM      30.38R
RIFLE          FAIR      33  17  51 NW9       30.36R WCI  25
DELTA          FAIR      33  22  64 N7        30.31S WCI  27
NUCLA          FAIR      37  19  48 CALM      30.32R
$$

COZ017>023-064>068-160400-
...SOUTHWEST COLORADO...

CITY           SKY/WX    TMP DP  RH WIND       PRES   REMARKS
DURANGO        FAIR      29  21  72 N7        30.20R WCI  22
CORTEZ         FAIR      31  23  72 VRB3      30.22R
PAGOSA SPRINGS FAIR      27  20  73 CALM      30.23R
TELLURIDE      FAIR      26  19  74 NW5       30.29S WCI  21
WOLF CREEK PAS FAIR      21   1  42 NW6       30.32S WCI  14
$$

COZ009-010-012-014-032>034-037-058>063-160400-
...CENTRAL COLORADO...

CITY           SKY/WX    TMP DP  RH WIND       PRES   REMARKS
ASPEN          FAIR      22  16  78 S3        30.29R
BUENA VISTA    CLOUDY    16  11  80 SE10      30.35R WCI   4
COPPER MTN     NOT AVBL
BERTHOUD PASS  FAIR       0 -13  55 N21G29    30.19R WCI -23
COTTONWOOD PAS NOT AVBL
GUNNISON       FAIR      28  19  69 SW7       30.28R WCI  21
KREMMLING      NOT AVBL
LEADVILLE      FAIR      13   4  67 NE9       30.28R WCI   1
MONARCH PASS   FAIR      14   9  79 SW13      30.34S WCI   0
SALIDA         CLOUDY    17  11  77 SE14G21   30.44R WCI   3
SUNLIGHT       FAIR      16  12  86 CALM      30.34S
WILKERSON PASS FAIR       9   3  78 N10G21    30.25S WCI  -6
$$

COZ069>075-160400-
...SAN LUIS VALLEY/SANGRE DE CRISTO MOUNTAINS...

CITY           SKY/WX    TMP DP  RH WIND       PRES   REMARKS
ALAMOSA        FAIR      16   7  67 E8        30.23R WCI   5
DEL NORTE      FAIR      22   0  38 S5        30.23R WCI  16
LA VETA PASS   CLOUDY     5   1  85 NE9         N/A  FOG     WCI  -9
SAGUACHE       FAIR      30  14  51 N7        30.23R WCI  23
$$

COZ035-036-038>040-160400-
...NORTHERN COLORADO FRONT RANGE...

CITY           SKY/WX    TMP DP  RH WIND       PRES   REMARKS
DENVER INTL AP FAIR       4  -6  63 E9        30.50R WCI -10
DMNS CITY PARK NOT AVBL
AURORA         PTCLDY     6  -3  68 E8        30.49S WCI  -7
FRONT RANGE AP PTCLDY     7  -4  61 E8        30.51R WCI  -6
ERIE MUNI ARPT MOCLDY    12   1  61 SE6       30.58S WCI   3
BOULDER MUN AP CLOUDY    18   7  62 E6        30.50S WCI   9
CENTENNIAL     FAIR       9   0  67 E6        30.47S WCI  -1
BROOMFIELD     CLOUDY    12   3  67 E9        30.49R WCI   0
FORT COLLINS   FAIR       3  -3  76 SW8       30.52S WCI -10
LONGMONT       CLOUDY    16   2  54 SE7       30.55S WCI   6
$$

COZ041-046-047-076>085-087-088-160400-
...PIKES PEAK/PALMER DIVIDE AND SOUTHERN FOOTHILLS...

CITY           SKY/WX    TMP DP  RH WIND       PRES   REMARKS
COLO. SPRINGS  FLURRIES  16  11  80 S10       30.46R WCI   4
A. F. ACADEMY  CLOUDY     8   3  80 CALM      30.43R
SCHRIEVER AFB  FLURRIES  12   4  70 N7        30.46R WCI   2
CHEYENNE MTN   FLURRIES  13  11  95 S3        30.35S
ELLICOTT         N/A    N/A N/A N/A NE3         N/A
FALCON         FLURRIES   9   5  82 N5        30.43R WCI   1
FORT CARSON    CLOUDY    16  12  83 S10       30.46S WCI   4
LIMON          FAIR       3  -4  72 N8        30.50R WCI -10
MONUMENT HILL  FAIR       0  -6  78 CALM      30.41S
CANON CITY     FLURRIES  21  18  86 E5        30.50S WCI  15
WALSENBURG     CLOUDY    18  14  86 SE3       30.46S
TRINIDAD       CLOUDY    16  11  80 NW3       30.50R
$$

COZ042>045-048>051-090-091-160400-
...NORTHEAST COLORADO...

CITY           SKY/WX    TMP DP  RH WIND       PRES   REMARKS
GREELEY ARPT   FAIR       4  -4  69 E6        30.56R WCI  -7
AKRON          FAIR       1  -5  75 CALM      30.54R
BURLINGTON     FAIR       3  -3  76 N6        30.58R WCI  -8
WRAY           FAIR       5  -4  66 N6        30.63S WCI  -6
YUMA           FAIR       0  -6  78 N6        30.58S WCI -12
STERLING       FAIR       7   0  72 NE6       30.59R WCI  -3
HOLYOKE        FAIR       1  -6  71 N7        30.62S WCI -11
FORT MORGAN    FAIR       7  -6  55 NW5       30.58R WCI  -2
$$

COZ086-089-092>099-160400-
...SOUTHEAST COLORADO...

CITY           SKY/WX    TMP DP  RH WIND       PRES   REMARKS
PUEBLO         CLOUDY    21  14  74 S3        30.54R
LA JUNTA       CLOUDY    20  -1  40 NE9       30.58R WCI   9
LAMAR          FAIR      11  -2  56 NE10      30.60R WCI  -3
SPRINGFIELD      N/A     12   1  61 NE12      30.55R WCI  -2
$$




USA.gov is the U.S. government's official web portal to all federal, state and local government web resources and services.